STARLINK-32745 (62755 NORAD) Tracking and Keplerian Element Data

This shows tracking and keplerian element data for the satellite.

Feedback or suggestion? Click here.




ElementValue
Catalog62755
NameSTARLINK-32745
Epoch Orbit5108
Epoch Day354.1022665
Epoch Year2025
RAAN244.0206
Inclination43.0007
Eccentricity0.0001379
Argument of Perigee270.963
Mean Anonmoly89.1064
Mean Motion15.27596429
Decay Rate0.00018177
L11 62755U 25014W 25354.10226650 .00018177 00000+0 66811-3 0 9996
L22 62755 43.0007 244.0206 0001379 270.9630 89.1064 15.27596429 51088



Live tracking and technical data element details for STARLINK-32745 (NORAD 62755). STARLINK-32745 can be tracked NOW for your location showing map with azimuth and elevation plus other details from your city location.







IsCatalogInMostPopularTable: catalog: 62755, numindb: 271
Update: records affected: 1



GetName: 62755 STARLINK-32745

Hit Count: updated at: Sat, 07 Mar 2026 03:51:01 GMT